Weather in Chefchaouen

Morocco     35°09′54″N   5°15′42″W
temp.,
°C
wind,
m/s
gust,
m/s
humid.,
%
clouds,
%
prec.,
mm/h
press.,
hPa
HPBL,
m
13 may, thu
thu1300:00+11w128019 0.0 102217
03:00+10sw227470 0.0 102023
06:00+10ssw227442 0.0 102028
09:00+17w22450 0.0 1019553
12:00+22wnw32330 0.0 10181293
15:00+22nw33360 0.0 10161517
18:00+18nw33523 0.0 1017371
21:00+12wnw22693 0.0 101924
14 may, fri
fri1400:00+11wsw22730 0.0 101923
03:00+10wsw22836 0.0 101826
06:00+11ssw22865 0.0 101833
09:00+18w22530 0.0 1018573
12:00+23wnw21365 0.0 10171138
15:00+24n32365 0.0 10151373
18:00+20nne33532 0.0 1016290
21:00+15e22612 0.0 101817
15 may, sat
sat1500:00+14e22405 0.0 101714
03:00+14ene223997 0.0 101716
06:00+13e224725 0.0 101721
09:00+22ne223315 0.0 1016321
12:00+26ne32273 0.0 1016856
15:00+27nne3331100 0.0 1015870
18:00+22ne33530 0.0 1015157
21:00+18e12390 0.0 101612
16 may, sun
sun1600:00+19sse22300 0.0 101611
04:00+18e11435 0.0 101411
07:00+19se124287 0.0 101511
10:00+26nw213096 0.0 1015440
13:00+29nnw332573 0.0 10141321
16:00+29n432763 0.0 10131057
19:00+25nne33421 0.0 101385
22:00+19nnw12440 0.0 101616
17 may, mon
mon1701:00+18nw013968 0.0 101613
04:00+17wnw12421 0.0 101613
07:00+17w12513 0.0 101716
10:00+24w22300 0.0 1017588
13:00+28wnw32220 0.0 10181488
16:00+28nnw33275 0.0 10171699
19:00+23n234779 0.0 1018307
22:00+18ne2257100 0.0 102013